• In Hungary
  • List of Countries
  • For 7 days
  • Water Temperature
  • Satellite Maps
  • Weather Map
  • News
  • Weather Widgets
  • user-avatar
    Login

    Hourly Weather Palembang

    Today, 21 January, Sunday

    Time Temperature Precipitation Wind Pressure Humidity
    00:00 +27°C° 0.1 mm 1 mps 755 mmHg 92%
    01:00 +26°C° 0 mm 1 mps 755 mmHg 93%
    02:00 +26°C° 0 mm 1 mps 755 mmHg 94%
    03:00 +26°C° 0 mm 1 mps 755 mmHg 94%
    04:00 +26°C° 0 mm 1 mps 754 mmHg 95%
    05:00 +26°C° 0 mm 1 mps 755 mmHg 94%
    06:00 +26°C° 0 mm 1 mps 755 mmHg 93%
    07:00 +26°C° 0 mm 1 mps 755 mmHg 92%
    08:00 +28°C° 0 mm 1 mps 755 mmHg 83%
    09:00 +30°C° 0 mm 1 mps 755 mmHg 73%
    10:00 +32°C° 0 mm 2 mps 755 mmHg 64%
    11:00 +34°C° 0 mm 2 mps 755 mmHg 58%
    12:00 +36°C° 0 mm 2 mps 754 mmHg 53%
    13:00 +37°C° 0 mm 2 mps 753 mmHg 47%
    14:00 +37°C° 0 mm 2 mps 753 mmHg 47%
    15:00 +37°C° 0 mm 2 mps 752 mmHg 46%
    16:00 +37°C° 0 mm 2 mps 752 mmHg 46%
    17:00 +35°C° 0.1 mm 2 mps 752 mmHg 55%
    18:00 +32°C° 0.1 mm 2 mps 752 mmHg 63%
    19:00 +30°C° 0.1 mm 1 mps 753 mmHg 72%
    20:00 +29°C° 0 mm 1 mps 753 mmHg 75%
    21:00 +29°C° 0 mm 1 mps 754 mmHg 79%
    22:00 +28°C° 0 mm 1 mps 755 mmHg 82%
    23:00 +28°C° 0.1 mm 1 mps 755 mmHg 83%

    Tomorrow, 22 January, Monday

    Time Temperature Precipitation Wind Pressure Humidity
    00:00 +28°C° 0.1 mm 1 mps 755 mmHg 84%
    01:00 +28°C° 0.1 mm 1 mps 755 mmHg 85%
    02:00 +27°C° 0.3 mm 1 mps 754 mmHg 86%
    03:00 +27°C° 0.3 mm 1 mps 754 mmHg 87%
    04:00 +26°C° 0.3 mm 1 mps 754 mmHg 87%
    05:00 +27°C° 0 mm 1 mps 754 mmHg 87%
    06:00 +27°C° 0 mm 1 mps 754 mmHg 86%
    07:00 +27°C° 0 mm 1 mps 755 mmHg 85%
    08:00 +28°C° 0 mm 1 mps 755 mmHg 80%
    09:00 +29°C° 0 mm 1 mps 755 mmHg 74%
    10:00 +31°C° 0 mm 1 mps 755 mmHg 68%
    11:00 +32°C° 0 mm 2 mps 754 mmHg 62%
    12:00 +35°C° 0 mm 2 mps 754 mmHg 55%
    13:00 +36°C° 0 mm 2 mps 753 mmHg 48%
    14:00 +36°C° 0.1 mm 2 mps 752 mmHg 50%
    15:00 +36°C° 0.1 mm 2 mps 752 mmHg 52%
    16:00 +35°C° 0.1 mm 2 mps 751 mmHg 54%
    17:00 +32°C° 0.4 mm 2 mps 751 mmHg 63%
    18:00 +31°C° 0.4 mm 2 mps 752 mmHg 72%
    19:00 +29°C° 0.4 mm 2 mps 752 mmHg 81%
    20:00 +28°C° 0.8 mm 2 mps 753 mmHg 83%
    21:00 +28°C° 0.8 mm 2 mps 754 mmHg 86%
    22:00 +28°C° 0.8 mm 1 mps 754 mmHg 89%
    23:00 +27°C° 1.8 mm 1 mps 754 mmHg 89%

    Day after tomorrow, 23 January, Tuesday

    Time Temperature Precipitation Wind Pressure Humidity
    00:00 +27°C° 1.8 mm 1 mps 754 mmHg 89%
    01:00 +27°C° 1.8 mm 1 mps 754 mmHg 89%
    02:00 +27°C° 0.5 mm 1 mps 753 mmHg 90%
    03:00 +27°C° 0.5 mm 1 mps 753 mmHg 91%
    04:00 +26°C° 0.5 mm 1 mps 753 mmHg 91%
    05:00 +27°C° 0.1 mm 1 mps 754 mmHg 91%
    06:00 +27°C° 0.1 mm 1 mps 754 mmHg 91%
    07:00 +25°C° 0.1 mm 0 mps 755 mmHg 91%
    08:00 +28°C° 0.6 mm 1 mps 755 mmHg 88%
    09:00 +29°C° 0.6 mm 2 mps 755 mmHg 85%
    10:00 +29°C° 0.6 mm 2 mps 756 mmHg 82%
    11:00 +30°C° 0.2 mm 2 mps 755 mmHg 77%
    12:00 +31°C° 0.2 mm 2 mps 754 mmHg 72%
    13:00 +31°C° 0.2 mm 2 mps 754 mmHg 68%
    14:00 +32°C° 0.1 mm 2 mps 753 mmHg 68%
    15:00 +32°C° 0.1 mm 2 mps 752 mmHg 67%
    16:00 +32°C° 0.1 mm 2 mps 752 mmHg 67%
    17:00 +31°C° 0.2 mm 1 mps 752 mmHg 73%
    18:00 +29°C° 0.2 mm 1 mps 753 mmHg 79%
    19:00 +28°C° 0.2 mm 1 mps 753 mmHg 85%
    20:00 +28°C° 0.3 mm 1 mps 754 mmHg 86%
    21:00 +28°C° 0.3 mm 1 mps 755 mmHg 88%
    22:00 +27°C° 0.3 mm 1 mps 755 mmHg 90%
    23:00 +27°C° 0.8 mm 1 mps 755 mmHg 91%

    24 January, Wednesday

    Time Temperature Precipitation Wind Pressure Humidity
    00:00 +27°C° 0.8 mm 1 mps 754 mmHg 91%
    01:00 +27°C° 0.8 mm 1 mps 754 mmHg 92%
    02:00 +26°C° 0.5 mm 1 mps 754 mmHg 93%
    03:00 +26°C° 0.5 mm 1 mps 753 mmHg 94%
    04:00 +26°C° 0.5 mm 1 mps 753 mmHg 94%
    05:00 +26°C° 0 mm 1 mps 754 mmHg 94%
    06:00 +24°C° 0 mm 0 mps 754 mmHg 93%
    07:00 +25°C° 0 mm 0 mps 755 mmHg 93%
    08:00 +28°C° 0.2 mm 1 mps 755 mmHg 86%
    09:00 +30°C° 0.2 mm 1 mps 755 mmHg 80%
    10:00 +31°C° 0.2 mm 2 mps 755 mmHg 74%
    11:00 +32°C° 0.1 mm 2 mps 754 mmHg 68%
    12:00 +35°C° 0.1 mm 2 mps 754 mmHg 62%
    13:00 +36°C° 0.1 mm 2 mps 753 mmHg 55%
    14:00 +36°C° 0.3 mm 2 mps 752 mmHg 56%
    15:00 +35°C° 0.3 mm 2 mps 751 mmHg 57%
    16:00 +34°C° 0.3 mm 1 mps 751 mmHg 58%
    17:00 +32°C° 0.2 mm 1 mps 751 mmHg 66%
    18:00 +31°C° 0.2 mm 2 mps 752 mmHg 74%
    19:00 +29°C° 0.2 mm 2 mps 753 mmHg 81%
    20:00 +28°C° 0.2 mm 1 mps 753 mmHg 84%
    21:00 +28°C° 0.2 mm 1 mps 754 mmHg 87%
    22:00 +27°C° 0.2 mm 1 mps 754 mmHg 90%
    23:00 +27°C° 2 mm 1 mps 754 mmHg 90%

    25 January, Thursday

    Time Temperature Precipitation Wind Pressure Humidity
    00:00 +27°C° 2 mm 1 mps 754 mmHg 90%
    01:00 +27°C° 2 mm 1 mps 753 mmHg 90%
    02:00 +27°C° 0.4 mm 1 mps 753 mmHg 91%
    03:00 +27°C° 0.4 mm 1 mps 753 mmHg 91%
    04:00 +26°C° 0.4 mm 1 mps 753 mmHg 92%
    05:00 +27°C° 0 mm 1 mps 753 mmHg 92%
    06:00 +27°C° 0 mm 1 mps 754 mmHg 92%
    07:00 +27°C° 0 mm 1 mps 754 mmHg 91%
    08:00 +28°C° 0.4 mm 1 mps 755 mmHg 88%
    09:00 +29°C° 0.4 mm 2 mps 755 mmHg 84%
    10:00 +30°C° 0.4 mm 2 mps 755 mmHg 81%
    11:00 +30°C° 0.2 mm 2 mps 754 mmHg 77%
    12:00 +31°C° 0.2 mm 2 mps 754 mmHg 74%
    13:00 +31°C° 0.2 mm 2 mps 753 mmHg 70%
    14:00 +31°C° 0 mm 2 mps 752 mmHg 70%
    15:00 +31°C° 0 mm 2 mps 752 mmHg 70%
    16:00 +31°C° 0 mm 2 mps 752 mmHg 71%
    17:00 +30°C° 0.1 mm 1 mps 752 mmHg 76%
    18:00 +29°C° 0.1 mm 1 mps 752 mmHg 81%
    19:00 +28°C° 0.1 mm 1 mps 753 mmHg 87%
    20:00 +28°C° 0.5 mm 1 mps 753 mmHg 89%
    21:00 +27°C° 0.5 mm 1 mps 754 mmHg 91%
    22:00 +27°C° 0.5 mm 1 mps 754 mmHg 93%
    23:00 +25°C° 0.3 mm 0 mps 754 mmHg 94%

    26 January, Friday

    Time Temperature Precipitation Wind Pressure Humidity
    00:00 +25°C° 0.3 mm 0 mps 754 mmHg 94%
    01:00 +24°C° 0.3 mm 0 mps 754 mmHg 94%
    02:00 +24°C° 0.1 mm 0 mps 753 mmHg 94%
    03:00 +24°C° 0.1 mm 0 mps 753 mmHg 94%
    04:00 +24°C° 0.1 mm 0 mps 753 mmHg 94%
    05:00 +24°C° 0 mm 0 mps 753 mmHg 93%
    06:00 +25°C° 0 mm 0 mps 754 mmHg 93%
    07:00 +25°C° 0 mm 0 mps 754 mmHg 93%
    08:00 +28°C° 0.1 mm 1 mps 754 mmHg 86%
    09:00 +30°C° 0.1 mm 1 mps 755 mmHg 80%
    10:00 +31°C° 0.1 mm 2 mps 755 mmHg 73%
    11:00 +32°C° 0.8 mm 2 mps 754 mmHg 71%
    12:00 +32°C° 0.8 mm 2 mps 753 mmHg 69%
    13:00 +34°C° 0.8 mm 2 mps 753 mmHg 67%
    14:00 +34°C° 0.7 mm 2 mps 752 mmHg 68%
    15:00 +32°C° 0.7 mm 2 mps 752 mmHg 69%
    16:00 +32°C° 0.7 mm 2 mps 751 mmHg 70%
    17:00 +31°C° 1.1 mm 2 mps 752 mmHg 77%
    18:00 +29°C° 1.1 mm 1 mps 752 mmHg 85%
    19:00 +28°C° 1.1 mm 1 mps 753 mmHg 92%
    20:00 +27°C° 1 mm 1 mps 753 mmHg 92%
    21:00 +27°C° 1 mm 1 mps 754 mmHg 93%
    22:00 +27°C° 1 mm 1 mps 754 mmHg 93%
    23:00 +27°C° 1.1 mm 1 mps 754 mmHg 93%
    Show more